This is the latest recevied weather packets stored in our database for station/object DO0SOB-11. If no packets are shown the sender has not sent any weather packets the latest 10 day(s).
| Time | Temp. | Humidity | Pressure | Rain* | Wind** | Luminosity | Snow |
|---|---|---|---|---|---|---|---|
| 1777889691 | 17.22° C | 100% | 974.6 hPa | - | - | - | - |
| 1777888791 | 20.56° C | 100% | 974.6 hPa | - | - | - | - |
| 1777887891 | 18.33° C | 100% | 974.7 hPa | - | - | - | - |
| 1777886991 | 18.89° C | 100% | 974.7 hPa | - | - | - | - |
| 1777886091 | 20.56° C | 100% | 974.9 hPa | - | - | - | - |
| 1777885191 | 17.78° C | 100% | 975 hPa | - | - | - | - |
| 1777884291 | 19.44° C | 100% | 975 hPa | - | - | - | - |
| 1777883391 | 16.67° C | 100% | 974.9 hPa | - | - | - | - |
| 1777882491 | 20° C | 100% | 974.8 hPa | - | - | - | - |
| 1777881590 | 18.33° C | 100% | 974.7 hPa | - | - | - | - |
| 1777880690 | 17.78° C | 100% | 974.8 hPa | - | - | - | - |
| 1777879790 | 18.89° C | 100% | 974.7 hPa | - | - | - | - |
| 1777878890 | 15.56° C | 100% | 974.5 hPa | - | - | - | - |
| 1777877990 | 16.11° C | 100% | 974.2 hPa | - | - | - | - |
| 1777877090 | 14.44° C | 100% | 974.2 hPa | - | - | - | - |
| 1777876190 | 13.89° C | 100% | 974.2 hPa | - | - | - | - |
| 1777875290 | 13.33° C | 100% | 974.1 hPa | - | - | - | - |
| 1777874390 | 12.78° C | 100% | 974 hPa | - | - | - | - |
| 1777873490 | 12.78° C | 100% | 974 hPa | - | - | - | - |
| 1777872590 | 12.22° C | 100% | 973.9 hPa | - | - | - | - |
| 1777871690 | 12.22° C | 100% | 973.7 hPa | - | - | - | - |
| 1777870790 | 11.67° C | 100% | 973.6 hPa | - | - | - | - |
| 1777869890 | 11.11° C | 100% | 973.5 hPa | - | - | - | - |
| 1777868990 | 11.11° C | 100% | 973.5 hPa | - | - | - | - |
| 1777868089 | 11.11° C | 100% | 973.6 hPa | - | - | - | - |
* Rain since midnight (hover to see other rain measurements)
** Current wind speed in m/s (hover to see current wind gust speed)